Weather History for Rionegro, Colombia

Change the Weather History Date:

Friday, November 16, 2012

  Actual Average Record
Temperature  
Mean Temperature 64 °F -  
Max Temperature 71 °F 68 °F 73 °F (2002)
Min Temperature 56 °F 53 °F 32 °F (1996)
Degree Days  
Heating Degree Days 2    
Growing Degree Days 14 (Base 50)    
Moisture  
Dew Point 57 °F    
Average Humidity 86    
Maximum Humidity 100    
Minimum Humidity 51    
Precipitation  
Precipitation 1.02 in - - ()
Sea Level Pressure  
Sea Level Pressure 30.25 in    
Wind  
Wind Speed 3 mph ()    
Max Wind Speed 12 mph    
Max Gust Speed -    
Visibility 5.1 miles    
Events Fog , Rain , Thunderstorm    
Averages and records for this station are not official NWS values.
T = Trace of Precipitation, MM = Missing Value Source: Averaged Metar Reports

Daily Weather History Graph

Daily Weather History Graph

Search for Another Location

Airport:

Trip Planner

Search our weather history database for the weather conditions in past years. The results will help you decide how hot, cold, wet, or windy it might be!

Date:

Astronomy

Nov. 16, 2012 Rise Set
Actual Time 5:51 AM COT 5:41 PM COT
Civil Twilight 5:29 AM COT 6:03 PM COT
Nautical Twilight 5:04 AM COT 6:29 PM COT
Astronomical Twilight 4:38 AM COT 6:54 PM COT
Moon 8:34 AM COT (11/16) 8:44 PM COT (11/16)
Length of Visible Light 12h 34m
Length of Day
11h 50m
Waxing Crescent, 11% of the Moon is Illuminated
Nov 16
Waxing Crescent
Nov 20
First Quarter
Nov 28
Full
Dec 6
Last Quarter
Dec 13
New

Hourly Weather History & Observations

Time (COT) Temp. Dew Point Humidity Pressure Visibility Wind Dir Wind Speed Gust Speed Precip Events Conditions
12:00 AM 59.0 °F 57.2 °F 94% 30.29 in 3.1 mi NE 4.6 mph - N/A   Light Drizzle
1:00 AM 58 °F 57 °F 97%  in 2 mi SE 4.5 mph - - Rain Light Drizzle
1:00 AM 57.2 °F 57.2 °F 100% 30.29 in 2.5 mi SE 4.6 mph - N/A Fog Light Drizzle
2:00 AM 57.2 °F 57.2 °F 100% 30.27 in 2.5 mi Variable 2.3 mph - N/A Fog Light Drizzle
3:00 AM 57.2 °F 57.2 °F 100% 30.24 in 3.7 mi Calm Calm - N/A Fog Fog
4:00 AM 57 °F 55 °F 91%  in 12 mi Calm Calm - - Rain Light Drizzle
4:00 AM 57.2 °F 55.4 °F 94% 30.24 in 6.2 mi Calm Calm - N/A   Light Drizzle
5:00 AM 57.2 °F 55.4 °F 94% 30.26 in 6.2 mi Variable 2.3 mph - N/A   Mostly Cloudy
5:30 AM 57.2 °F 55.4 °F 94% 30.27 in 6.2 mi Calm Calm - N/A   Mostly Cloudy
6:00 AM 57.2 °F 55.4 °F 94% 30.27 in 6.2 mi Calm Calm - N/A   Overcast
7:00 AM 58 °F 56 °F 90%  in 4 mi Calm Calm - -   Haze
7:00 AM 59.0 °F 55.4 °F 88% 30.27 in 6.2 mi Calm Calm - N/A   Mostly Cloudy
8:00 AM 59.0 °F 57.2 °F 94% 30.30 in - North - - N/A   Haze
9:00 AM 60.8 °F 55.4 °F 82% 30.30 in 6.2 mi Calm Calm - N/A   Scattered Clouds
10:00 AM 63 °F 56 °F 70%  in 9 mi ENE 6.7 mph - -   Haze
10:00 AM 62.6 °F 55.4 °F 77% 30.31 in 6.2 mi ENE 6.9 mph - N/A   Scattered Clouds
11:00 AM 66.2 °F 55.4 °F 68% 30.29 in 6.2 mi Calm Calm - N/A   Scattered Clouds
12:00 PM 68.0 °F 55.4 °F 64% 30.27 in 6.2 mi Calm Calm - N/A   Scattered Clouds
1:00 PM 69 °F 55 °F 51%  in 12 mi Calm Calm - -   Haze
1:00 PM 69.8 °F 55.4 °F 60% 30.23 in 6.2 mi Calm Calm - N/A   Scattered Clouds
2:00 PM 71.6 °F 55.4 °F 57% 30.19 in 6.2 mi WNW 4.6 mph - N/A   Scattered Clouds
3:00 PM 69.8 °F 53.6 °F 56% 30.17 in 6.2 mi East 11.5 mph - N/A   Scattered Clouds
3:30 PM - - N/A% 30.17 in 2.5 mi SSW 9.2 mph - N/A Rain , Thunderstorm Heavy Thunderstorms and Rain
4:00 PM 59 °F 57 °F 92%  in 3 mi NNE 11.2 mph - - Rain , Thunderstorm Thunderstorms and Rain
4:00 PM 59.0 °F 57.2 °F 94% 30.18 in 2.8 mi NNE 9.2 mph - N/A Rain , Thunderstorm Light Thunderstorms and Rain
5:00 PM 62.6 °F 57.2 °F 82% 30.19 in 6.2 mi North 4.6 mph - N/A   Scattered Clouds
6:00 PM 62.6 °F 59.0 °F 88% 30.20 in 6.2 mi Calm Calm - N/A   Scattered Clouds
7:00 PM 61 °F 58 °F 86%  in 4 mi NE 6.7 mph - - Rain Rain
7:00 PM 60.8 °F 57.2 °F 88% 30.24 in 4.3 mi NE 6.9 mph - N/A Rain Rain
7:20 PM - - N/A% 30.24 in 5.0 mi Calm Calm - N/A   Light Drizzle
7:35 PM - - N/A% 30.24 in 2.5 mi Calm Calm - N/A Rain Rain
8:00 PM 59.0 °F 57.2 °F 94% 30.28 in 1.2 mi Calm Calm - N/A Rain Rain
8:10 PM - - N/A% 30.28 in 4.3 mi Calm Calm - N/A   Light Drizzle
9:00 PM 59.0 °F 59.0 °F 100% 30.30 in 5.6 mi Calm Calm - N/A   Light Drizzle
10:00 PM 60 °F 58 °F 93%  in 4 mi Calm Calm - - Fog Light Fog
10:00 PM 59.0 °F 59.0 °F 100% 30.29 in 4.3 mi Calm Calm - N/A Fog Fog
11:00 PM 59.0 °F 59.0 °F 100% 30.29 in 3.7 mi Calm Calm - N/A Fog Fog